This is the latest recevied weather packets stored in our database for station/object W2OBX. If no packets are shown the sender has not sent any weather packets the latest 10 day(s).
| Time | Temp. | Humidity | Pressure | Rain* | Wind** | Luminosity | Snow |
|---|---|---|---|---|---|---|---|
| 1778170346 | 12.78° C | 98% | 1014.3 hPa | 0 mm | - | 36 W/m² | - |
| 1778170041 | 12.78° C | 98% | 1014.1 hPa | 0 mm | - | 29 W/m² | - |
| 1778169738 | 13.33° C | 98% | 1014.3 hPa | 0 mm | - | 34 W/m² | - |
| 1778169434 | 13.33° C | 98% | 1014.1 hPa | 0 mm | - | 37 W/m² | - |
| 1778169130 | 13.33° C | 98% | 1014.2 hPa | 0 mm | - | 32 W/m² | - |
| 1778168827 | 13.33° C | 99% | 1014.1 hPa | 0 mm | - | 42 W/m² | - |
| 1778168525 | 12.78° C | 99% | 1014.1 hPa | 0 mm | - | 46 W/m² | - |
| 1778168221 | 13.33° C | 99% | 1014.1 hPa | 0 mm | - | 44 W/m² | - |
| 1778167918 | 13.33° C | 99% | 1013.9 hPa | 0 mm | - | 40 W/m² | - |
| 1778167614 | 13.33° C | 99% | 1013.9 hPa | 0 mm | - | 46 W/m² | - |
| 1778167310 | 12.78° C | 99% | 1014.2 hPa | 0 mm | - | 43 W/m² | - |
| 1778167006 | 12.78° C | 99% | 1013.9 hPa | 0 mm | - | 52 W/m² | - |
| 1778166703 | 12.78° C | 99% | 1013.9 hPa | 0 mm | - | 73 W/m² | - |
| 1778166400 | 12.78° C | 99% | 1013.9 hPa | 0 mm | - | 46 W/m² | - |
| 1778166097 | 12.78° C | 99% | 1014 hPa | 0 mm | - | 31 W/m² | - |
| 1778165792 | 12.78° C | 99% | 1014 hPa | 0 mm | - | 45 W/m² | - |
| 1778165490 | 13.33° C | 99% | 1013.7 hPa | 0 mm | - | 42 W/m² | - |
| 1778165186 | 12.78° C | 99% | 1013.7 hPa | 0 mm | - | 48 W/m² | - |
| 1778164885 | 12.78° C | 99% | 1013.6 hPa | 0 mm | - | 37 W/m² | - |
| 1778164581 | 12.78° C | 99% | 1013.8 hPa | 0 mm | - | 18 W/m² | - |
| 1778164278 | 12.78° C | 99% | 1013.8 hPa | 0 mm | - | 35 W/m² | - |
| 1778163973 | 12.78° C | 99% | 1013.8 hPa | 0 mm | - | 32 W/m² | - |
| 1778163671 | 12.78° C | 99% | 1013.6 hPa | 0 mm | - | 33 W/m² | - |
| 1778163367 | 12.78° C | 99% | 1013.7 hPa | 0 mm | - | 31 W/m² | - |
| 1778163064 | 12.78° C | 99% | 1013.6 hPa | 0 mm | - | 18 W/m² | - |
* Rain latest hour (hover to see other rain measurements)
** Current wind speed in m/s (hover to see current wind gust speed)